Retour au catalogue

GUANGCHUAN 01

ActifCommunicationsVLEO
NORAD 62111·PAYLOAD·🇨🇳 China

Lancé Nov 27, 2024 depuis Jiuquan Satellite Launch Center

Loading…

Prochains Passages (prochaines 24 heures)

TLE

FraisSource: Space-Track

Époque: Sep 14, 2026, 21:14 UTC

1 62111U 24221A   26257.88484303  .00002250  00000-0  13735-3 0  9993
2 62111  49.9433  85.3591 0007076 300.6745  59.3507 15.14340350 99789

Suivez GUANGCHUAN 01 en temps réel avec AllMySat

Download on the App Store